Hourly Weather Ipswich

Today, 5 August, Wednesday

Time Temperature Precipitation Wind Pressure Humidity
00:00 +16°C° 0 mm 6 mps 758 mmHg 63%
01:00 +16°C° 0 mm 6 mps 758 mmHg 67%
02:00 +15°C° 0 mm 6 mps 758 mmHg 71%
03:00 +15°C° 0 mm 6 mps 758 mmHg 75%
04:00 +15°C° 0 mm 6 mps 758 mmHg 76%
05:00 +15°C° 0 mm 6 mps 758 mmHg 78%
06:00 +16°C° 0 mm 6 mps 758 mmHg 79%
07:00 +17°C° 0 mm 7 mps 758 mmHg 73%
08:00 +20°C° 0 mm 7 mps 759 mmHg 66%
09:00 +22°C° 0 mm 7 mps 759 mmHg 60%
10:00 +23°C° 0 mm 7 mps 759 mmHg 55%
11:00 +24°C° 0 mm 7 mps 759 mmHg 51%
12:00 +26°C° 0 mm 7 mps 758 mmHg 46%
13:00 +26°C° 0 mm 7 mps 758 mmHg 44%
14:00 +27°C° 0 mm 7 mps 758 mmHg 42%
15:00 +27°C° 0 mm 7 mps 758 mmHg 41%
16:00 +26°C° 0 mm 7 mps 758 mmHg 46%
17:00 +24°C° 0 mm 6 mps 758 mmHg 51%
18:00 +23°C° 0 mm 6 mps 758 mmHg 56%
19:00 +22°C° 0 mm 5 mps 759 mmHg 61%
20:00 +21°C° 0 mm 5 mps 759 mmHg 65%
21:00 +20°C° 0 mm 5 mps 759 mmHg 70%
22:00 +19°C° 0 mm 5 mps 759 mmHg 72%
23:00 +19°C° 0 mm 5 mps 759 mmHg 75%

Tomorrow, 6 August, Thursday

Time Temperature Precipitation Wind Pressure Humidity
00:00 +19°C° 0 mm 5 mps 760 mmHg 77%
01:00 +19°C° 0 mm 4 mps 760 mmHg 78%
02:00 +19°C° 0 mm 4 mps 760 mmHg 79%
03:00 +19°C° 0 mm 4 mps 760 mmHg 79%
04:00 +19°C° 0 mm 4 mps 761 mmHg 81%
05:00 +19°C° 0 mm 3 mps 761 mmHg 83%
06:00 +19°C° 0 mm 3 mps 761 mmHg 85%
07:00 +20°C° 0 mm 3 mps 761 mmHg 78%
08:00 +22°C° 0 mm 3 mps 762 mmHg 72%
09:00 +25°C° 0 mm 3 mps 762 mmHg 65%
10:00 +26°C° 0 mm 3 mps 762 mmHg 60%
11:00 +27°C° 0 mm 4 mps 762 mmHg 55%
12:00 +28°C° 0 mm 4 mps 762 mmHg 50%
13:00 +28°C° 0 mm 4 mps 762 mmHg 48%
14:00 +28°C° 0 mm 4 mps 762 mmHg 46%
15:00 +28°C° 0 mm 4 mps 762 mmHg 45%
16:00 +27°C° 0 mm 4 mps 761 mmHg 48%
17:00 +26°C° 0 mm 4 mps 761 mmHg 51%
18:00 +25°C° 0 mm 4 mps 761 mmHg 54%
19:00 +23°C° 0 mm 4 mps 762 mmHg 57%
20:00 +22°C° 0 mm 4 mps 762 mmHg 60%
21:00 +21°C° 0 mm 4 mps 762 mmHg 63%
22:00 +21°C° 0 mm 3 mps 762 mmHg 63%
23:00 +20°C° 0 mm 3 mps 762 mmHg 63%

Day after tomorrow, 7 August, Friday

Time Temperature Precipitation Wind Pressure Humidity
00:00 +20°C° 0 mm 2 mps 762 mmHg 63%
01:00 +20°C° 0 mm 2 mps 762 mmHg 63%
02:00 +20°C° 0 mm 1 mps 762 mmHg 62%
03:00 +20°C° 0 mm 1 mps 762 mmHg 61%
04:00 +21°C° 0 mm 1 mps 762 mmHg 61%
05:00 +21°C° 0 mm 1 mps 762 mmHg 62%
06:00 +22°C° 0 mm 1 mps 763 mmHg 62%
07:00 +24°C° 0 mm 2 mps 763 mmHg 57%
08:00 +26°C° 0 mm 2 mps 763 mmHg 53%
09:00 +28°C° 0 mm 2 mps 763 mmHg 48%
10:00 +29°C° 0 mm 3 mps 763 mmHg 46%
11:00 +30°C° 0 mm 3 mps 763 mmHg 44%
12:00 +32°C° 0 mm 4 mps 763 mmHg 42%
13:00 +32°C° 0 mm 4 mps 762 mmHg 42%
14:00 +32°C° 0 mm 4 mps 762 mmHg 43%
15:00 +30°C° 0 mm 4 mps 762 mmHg 43%
16:00 +29°C° 0 mm 4 mps 762 mmHg 47%
17:00 +28°C° 0 mm 4 mps 761 mmHg 51%
18:00 +27°C° 0 mm 4 mps 761 mmHg 55%
19:00 +26°C° 0 mm 4 mps 761 mmHg 58%
20:00 +25°C° 0 mm 4 mps 761 mmHg 62%
21:00 +22°C° 0 mm 4 mps 762 mmHg 65%
22:00 +22°C° 0 mm 4 mps 761 mmHg 68%
23:00 +22°C° 0 mm 4 mps 761 mmHg 71%

8 August, Saturday

Time Temperature Precipitation Wind Pressure Humidity
00:00 +21°C° 0 mm 3 mps 761 mmHg 73%
01:00 +21°C° 0 mm 3 mps 761 mmHg 73%
02:00 +21°C° 0 mm 2 mps 761 mmHg 73%
03:00 +22°C° 0 mm 1 mps 761 mmHg 73%
04:00 +21°C° 0 mm 2 mps 761 mmHg 72%
05:00 +21°C° 0 mm 3 mps 761 mmHg 72%
06:00 +22°C° 0 mm 3 mps 762 mmHg 71%
07:00 +22°C° 0 mm 4 mps 762 mmHg 71%
08:00 +23°C° 0 mm 5 mps 762 mmHg 72%
09:00 +23°C° 0 mm 6 mps 763 mmHg 72%
10:00 +24°C° 0 mm 6 mps 763 mmHg 67%
11:00 +24°C° 0 mm 6 mps 764 mmHg 62%
12:00 +26°C° 0 mm 7 mps 764 mmHg 57%
13:00 +26°C° 0 mm 7 mps 764 mmHg 56%
14:00 +24°C° 0 mm 7 mps 764 mmHg 55%
15:00 +24°C° 0 mm 7 mps 765 mmHg 54%
16:00 +22°C° 0 mm 7 mps 765 mmHg 57%
17:00 +21°C° 0 mm 7 mps 765 mmHg 60%
18:00 +20°C° 0 mm 7 mps 765 mmHg 63%
19:00 +18°C° 0 mm 7 mps 766 mmHg 68%
20:00 +17°C° 0 mm 7 mps 766 mmHg 74%
21:00 +16°C° 0 mm 7 mps 766 mmHg 79%
22:00 +15°C° 0 mm 7 mps 766 mmHg 81%
23:00 +15°C° 0 mm 6 mps 766 mmHg 83%

9 August, Sunday

Time Temperature Precipitation Wind Pressure Humidity
00:00 +15°C° 0 mm 6 mps 766 mmHg 85%
01:00 +15°C° 0 mm 6 mps 766 mmHg 84%
02:00 +15°C° 0 mm 6 mps 766 mmHg 83%
03:00 +16°C° 0 mm 6 mps 766 mmHg 82%
04:00 +16°C° 0 mm 7 mps 766 mmHg 82%
05:00 +16°C° 0 mm 7 mps 766 mmHg 81%
06:00 +16°C° 0 mm 7 mps 766 mmHg 81%
07:00 +17°C° 0 mm 7 mps 766 mmHg 77%
08:00 +17°C° 0 mm 7 mps 766 mmHg 74%
09:00 +18°C° 0 mm 8 mps 766 mmHg 70%
10:00 +20°C° 0 mm 8 mps 766 mmHg 68%
11:00 +20°C° 0 mm 8 mps 766 mmHg 65%
12:00 +21°C° 0 mm 8 mps 766 mmHg 63%
13:00 +20°C° 0 mm 8 mps 765 mmHg 63%
14:00 +20°C° 0 mm 8 mps 765 mmHg 63%
15:00 +20°C° 0 mm 8 mps 765 mmHg 63%
16:00 +18°C° 0 mm 8 mps 765 mmHg 65%
17:00 +18°C° 0 mm 8 mps 765 mmHg 68%
18:00 +17°C° 0 mm 7 mps 765 mmHg 70%
19:00 +17°C° 0 mm 7 mps 765 mmHg 73%
20:00 +16°C° 0 mm 7 mps 764 mmHg 75%
21:00 +15°C° 0 mm 7 mps 764 mmHg 78%
22:00 +15°C° 0 mm 7 mps 764 mmHg 78%
23:00 +15°C° 0 mm 7 mps 764 mmHg 78%

10 August, Monday

Time Temperature Precipitation Wind Pressure Humidity
00:00 +15°C° 0 mm 7 mps 764 mmHg 79%
01:00 +15°C° 0 mm 7 mps 764 mmHg 81%
02:00 +15°C° 0 mm 7 mps 763 mmHg 83%
03:00 +15°C° 0 mm 7 mps 763 mmHg 85%
04:00 +15°C° 0 mm 7 mps 763 mmHg 84%
05:00 +15°C° 0 mm 7 mps 763 mmHg 83%
06:00 +16°C° 0 mm 7 mps 763 mmHg 81%
07:00 +17°C° 0 mm 7 mps 763 mmHg 77%
08:00 +18°C° 0 mm 8 mps 763 mmHg 72%
09:00 +20°C° 0 mm 8 mps 763 mmHg 67%
10:00 +21°C° 0 mm 8 mps 763 mmHg 63%
11:00 +22°C° 0 mm 8 mps 762 mmHg 59%
12:00 +22°C° 0 mm 8 mps 762 mmHg 55%
13:00 +22°C° 0 mm 8 mps 762 mmHg 55%
14:00 +22°C° 0 mm 8 mps 762 mmHg 54%
15:00 +22°C° 0 mm 8 mps 761 mmHg 54%
16:00 +21°C° 0 mm 8 mps 761 mmHg 57%
17:00 +20°C° 0 mm 8 mps 761 mmHg 61%
18:00 +18°C° 0 mm 8 mps 761 mmHg 65%
19:00 +17°C° 0 mm 7 mps 761 mmHg 68%
20:00 +17°C° 0 mm 7 mps 761 mmHg 71%
21:00 +16°C° 0 mm 7 mps 762 mmHg 74%
22:00 +16°C° 0 mm 7 mps 761 mmHg 75%
23:00 +16°C° 0 mm 7 mps 761 mmHg 76%
Show more